Simultaneous Nadir Overpasses (SNOs) Predictions

Prediction of SNOs between GOES-15 and METOP-B Satellite Orbit:

Table of predicted SNOs for the next 14.0 days since TLE Epoch: 8/26/2023
Index Date Time (GOES-15) GOES-15 Lat,Lon METOP-B Lat,Lon Distance(km) Time Diff (sec)
1 08/27/2023 12:42:43 0.17, 133.30 -0.13, 131.87 163.47 80
2 08/30/2023 00:38:23 -0.17, 130.64 -0.54, 132.17 175.76 80
3 08/31/2023 13:00:07 0.21, 129.14 -0.18, 127.51 186.48 80
4 09/01/2023 12:36:51 0.17, 128.12 1.16, 132.46 495.13 80
5 09/03/2023 00:55:47 -0.20, 126.45 -0.50, 127.82 155.69 80
6 09/04/2023 13:17:32 0.23, 124.94 -0.15, 123.14 204.80 80
7 09/05/2023 12:54:15 0.19, 123.91 1.14, 128.10 477.66 80
8 09/07/2023 01:13:11 -0.22, 122.23 -0.48, 123.46 139.44 80
9 09/08/2023 13:34:55 0.24, 120.71 -0.22, 118.79 219.79 80
